Clarksburg, WV

5:56 PM EST on December 05, 2019 (GMT -0500)
Benedum

Weather History for KCKB - October, 2019

Change the Weather History Date:

Thursday, October 3, 2019

  Actual Average Record
Temperature  
Mean Temperature 83 °F -  
Max Temperature 95 °F 69 °F 95 °F (2019)
Min Temperature 71 °F 47 °F 29 °F (2003)
Cooling Degree Days 18    
Month to date cooling degree days 48  
Year to date cooling degree days 1328  
Growing Degree Days 32 (Base 50)    
Moisture  
Dew Point 61 °F    
Average Humidity 48    
Maximum Humidity 68    
Minimum Humidity 28    
Precipitation  
Precipitation 0.00 in - - ()
Month to date precipitation 0.00  
Year to date precipitation 32.07  
Sea Level Pressure  
Sea Level Pressure 29.94 in    
Wind  
Wind Speed 8 mph (WSW)    
Max Wind Speed 18 mph    
Max Gust Speed 27 mph    
Visibility 10 miles    
Events      
Averages and records for this station are not official NWS values.
T = Trace of Precipitation, MM = Missing Value Source: NWS Daily Summary

Daily Weather History Graph

Daily Weather History Graph

Search for Another Location

Airport or City:

Astronomy

Oct. 03, 2019 Rise Set
Actual Time 7:18 AM EDT 7:00 PM EDT
Civil Twilight 6:51 AM EDT 7:27 PM EDT
Nautical Twilight 6:20 AM EDT 7:58 PM EDT
Astronomical Twilight 5:49 AM EDT 8:29 PM EDT
Moon 12:46 PM EDT (10/3) 10:40 PM EDT (10/3)
Length of Visible Light 12h 35m
Length of Day
11h 41m
Waxing Crescent, 29% of the Moon is Illuminated
Oct 3
Waxing Crescent
Oct 5
First Quarter
Oct 13
Full
Oct 21
Last Quarter
Oct 27
New

Hourly Weather History & Observations

Time (EDT) Temp. Heat Index Dew Point Humidity Pressure Visibility Wind Dir Wind Speed Gust Speed Precip Events Conditions
12:53 AM 77.0 °F - 62.1 °F 60% 29.90 in 10.0 mi South 3.5 mph - N/A   Partly Cloudy
1:53 AM 77.0 °F - 61.0 °F 58% 29.91 in 10.0 mi Calm Calm - N/A   Scattered Clouds
2:53 AM 75.9 °F - 62.1 °F 62% 29.91 in 10.0 mi South 4.6 mph - N/A   Overcast
3:53 AM 77.0 °F - 62.1 °F 60% 29.93 in 10.0 mi South 4.6 mph - N/A   Overcast
4:53 AM 75.0 °F - 62.1 °F 64% 29.94 in 10.0 mi South 3.5 mph - N/A   Mostly Cloudy
5:53 AM 73.0 °F - 62.1 °F 68% 29.96 in 10.0 mi Calm Calm - N/A   Clear
6:53 AM 72.0 °F - 61.0 °F 68% 29.96 in 10.0 mi South 3.5 mph - N/A   Clear
7:53 AM 73.0 °F - 61.0 °F 66% 29.97 in 10.0 mi Calm Calm - N/A   Clear
8:53 AM 77.0 °F - 62.1 °F 60% 29.98 in 10.0 mi SSW 5.8 mph - N/A   Clear
9:53 AM 82.0 °F 83.1 °F 63.0 °F 52% 29.98 in 10.0 mi SSW 9.2 mph - N/A   Clear
10:53 AM 87.1 °F 87.8 °F 63.0 °F 44% 29.97 in 10.0 mi SW 9.2 mph - N/A   Clear
11:53 AM 89.1 °F 89.0 °F 61.0 °F 39% 29.95 in 10.0 mi WSW 9.2 mph - N/A   Clear
12:53 PM 89.1 °F 89.0 °F 61.0 °F 39% 29.94 in 10.0 mi West 9.2 mph - N/A   Partly Cloudy
1:53 PM 91.9 °F 91.2 °F 59.0 °F 33% 29.92 in 10.0 mi WNW 16.1 mph 23.0 mph N/A   Mostly Cloudy
2:53 PM 93.9 °F 92.9 °F 57.9 °F 30% 29.90 in 10.0 mi WSW 11.5 mph - N/A   Scattered Clouds
3:53 PM 93.0 °F 91.4 °F 55.9 °F 29% 29.90 in 10.0 mi West 15.0 mph 21.9 mph N/A   Clear
4:53 PM 91.9 °F 90.6 °F 57.0 °F 31% 29.90 in 10.0 mi WSW 13.8 mph - N/A   Clear
5:53 PM 91.0 °F 90.0 °F 57.9 °F 33% 29.90 in 10.0 mi West 10.4 mph - N/A   Partly Cloudy
6:53 PM 88.0 °F 86.9 °F 57.9 °F 36% 29.91 in 10.0 mi WSW 5.8 mph - N/A   Mostly Cloudy
7:53 PM 88.0 °F 87.1 °F 59.0 °F 37% 29.92 in 10.0 mi West 6.9 mph - N/A   Overcast
8:53 PM 86.0 °F 85.7 °F 60.1 °F 41% 29.93 in 10.0 mi West 4.6 mph - N/A   Overcast
9:53 PM 84.9 °F 84.8 °F 60.1 °F 43% 29.94 in 10.0 mi West 8.1 mph - N/A   Overcast
10:53 PM 82.9 °F 84.0 °F 63.0 °F 51% 29.96 in 10.0 mi NW 13.8 mph - N/A   Mostly Cloudy
11:53 PM 78.1 °F - 64.9 °F 64% 29.97 in 10.0 mi NNW 9.2 mph - N/A   Mostly Cloudy